"Period start","avg(HW err(1)/warn(2) (#))","avg(Visibility (m))","avg(Weather code (#))","avg(Precip intensity (mm/h))","min(HW err(1)/warn(2) (#))","max(HW err(1)/warn(2) (#))","std(HW err(1)/warn(2) (#))","med(HW err(1)/warn(2) (#))","min(Visibility (m))","max(Visibility (m))","std(Visibility (m))","med(Visibility (m))","min(Weather code (#))","max(Weather code (#))","std(Weather code (#))","med(Weather code (#))","min(Precip intensity (mm/h))","max(Precip intensity (mm/h))","std(Precip intensity (mm/h))","med(Precip intensity (mm/h))"
2016-08-11 00:00:00,2,49392,28,0.06,0,2,1,2,47363,50000,958,50000,0,61,28,26,0.00,0.20,0.08,0.00
2016-08-11 00:10:00,2,48568,0,0.00,2,2,0,2,42230,50000,2876,50000,0,0,0,0,0.00,0.00,0.00,0.00
2016-08-11 00:20:00,1,47988,0,0.00,0,2,1,0,43220,50000,2354,49206,0,0,0,0,0.00,0.00,0.00,0.00
2016-08-11 00:30:00,1,49742,0,0.00,0,2,1,0,48355,50000,540,50000,0,0,0,0,0.00,0.00,0.00,0.00
2016-08-11 00:40:00,1,49035,0,0.00,0,2,1,2,46035,50000,1503,50000,0,0,0,0,0.00,0.00,0.00,0.00
2016-08-11 00:50:00,0,48587,0,0.00,0,0,0,0,43921,50000,2001,50000,0,0,0,0,0.00,0.00,0.00,0.00
2016-08-11 01:00:00,0,49743,0,0.00,0,2,1,0,48288,50000,520,50000,0,0,0,0,0.00,0.00,0.00,0.00
2016-08-11 01:10:00,1,46808,0,0.00,0,2,1,0,39662,50000,4143,50000,0,0,0,0,0.00,0.00,0.00,0.00
2016-08-11 01:20:00,1,48792,0,0.00,0,2,1,0,42738,50000,2294,50000,0,0,0,0,0.00,0.00,0.00,0.00
2016-08-11 01:30:00,0,49395,0,0.00,0,0,0,0,43947,50000,1816,50000,0,0,0,0,0.00,0.00,0.00,0.00
2016-08-11 01:40:00,1,50000,0,0.00,0,2,1,0,50000,50000,0,50000,0,0,0,0,0.00,0.00,0.00,0.00
2016-08-11 01:50:00,2,43374,0,0.00,2,2,0,2,29664,50000,8621,50000,0,0,0,0,0.00,0.00,0.00,0.00
2016-08-11 02:00:00,2,38445,0,0.00,0,2,1,2,22941,47821,6471,40652,0,0,0,0,0.00,0.00,0.00,0.00
2016-08-11 02:10:00,0,47660,0,0.00,0,2,1,0,44870,50000,2083,47544,0,0,0,0,0.00,0.00,0.00,0.00
2016-08-11 02:20:00,1,49042,0,0.00,0,2,1,0,45258,50000,1683,50000,0,0,0,0,0.00,0.00,0.00,0.00
2016-08-11 02:30:00,1,46290,0,0.00,0,2,1,0,39772,50000,3915,47360,0,0,0,0,0.00,0.00,0.00,0.00
2016-08-11 02:40:00,1,49900,0,0.00,0,2,1,2,49205,50000,240,50000,0,0,0,0,0.00,0.00,0.00,0.00
2016-08-11 02:50:00,1,41514,0,0.00,0,2,1,1,34650,50000,5443,40670,0,0,0,0,0.00,0.00,0.00,0.00
2016-08-11 03:00:00,1,47520,0,0.00,0,2,1,0,34690,50000,4900,50000,0,0,0,0,0.00,0.00,0.00,0.00
2016-08-11 03:10:00,1,48546,0,0.00,0,2,1,0,37814,50000,3603,50000,0,0,0,0,0.00,0.00,0.00,0.00
2016-08-11 03:20:00,1,43032,0,0.00,0,2,1,2,29528,50000,7296,44415,0,0,0,0,0.00,0.00,0.00,0.00
2016-08-11 03:30:00,2,44036,0,0.00,0,2,1,2,30233,50000,7378,49272,0,0,0,0,0.00,0.00,0.00,0.00
2016-08-11 03:40:00,2,43532,0,0.00,0,2,1,2,32734,50000,4939,44622,0,0,0,0,0.00,0.00,0.00,0.00
2016-08-11 03:50:00,1,45626,0,0.00,0,2,1,1,33984,50000,6448,50000,0,0,0,0,0.00,0.00,0.00,0.00
2016-08-11 04:00:00,0,49652,0,0.00,0,0,0,0,47477,50000,763,50000,0,0,0,0,0.00,0.00,0.00,0.00
2016-08-11 04:10:00,0,48993,0,0.00,0,0,0,0,45188,50000,1598,50000,0,0,0,0,0.00,0.00,0.00,0.00
2016-08-11 04:20:00,0,49217,0,0.00,0,2,1,0,42384,50000,2279,50000,0,0,0,0,0.00,0.00,0.00,0.00
2016-08-11 04:30:00,0,48475,0,0.00,0,0,0,0,39954,50000,3045,50000,0,0,0,0,0.00,0.00,0.00,0.00
2016-08-11 04:40:00,0,49436,0,0.00,0,0,0,0,48059,50000,752,49969,0,0,0,0,0.00,0.00,0.00,0.00
2016-08-11 04:50:00,0,49743,0,0.00,0,0,0,0,48617,50000,516,50000,0,0,0,0,0.00,0.00,0.00,0.00
2016-08-11 05:00:00,0,49918,0,0.00,0,0,0,0,49185,50000,244,50000,0,0,0,0,0.00,0.00,0.00,0.00
2016-08-11 05:10:00,0,49893,0,0.00,0,0,0,0,48930,50000,321,50000,0,0,0,0,0.00,0.00,0.00,0.00
2016-08-11 05:20:00,0,48652,0,0.00,0,0,0,0,42403,50000,2322,50000,0,0,0,0,0.00,0.00,0.00,0.00
2016-08-11 05:30:00,0,47093,0,0.00,0,0,0,0,34201,50000,4970,49534,0,0,0,0,0.00,0.00,0.00,0.00
2016-08-11 05:40:00,0,49598,0,0.00,0,0,0,0,47060,50000,905,50000,0,0,0,0,0.00,0.00,0.00,0.00
2016-08-11 05:50:00,0,48326,0,0.00,0,0,0,0,44856,50000,2152,49950,0,0,0,0,0.00,0.00,0.00,0.00
2016-08-11 06:00:00,0,49194,0,0.00,0,0,0,0,46087,50000,1391,50000,0,0,0,0,0.00,0.00,0.00,0.00
2016-08-11 06:10:00,0,50000,0,0.00,0,0,0,0,50000,50000,0,50000,0,0,0,0,0.00,0.00,0.00,0.00
2016-08-11 06:20:00,0,49722,0,0.00,0,0,0,0,47511,50000,742,50000,0,0,0,0,0.00,0.00,0.00,0.00
2016-08-11 06:30:00,0,49811,0,0.00,0,0,0,0,48466,50000,461,50000,0,0,0,0,0.00,0.00,0.00,0.00
2016-08-11 06:40:00,0,49798,0,0.00,0,0,0,0,47981,50000,606,50000,0,0,0,0,0.00,0.00,0.00,0.00
2016-08-11 06:50:00,0,48804,0,0.00,0,0,0,0,45545,50000,1739,49990,0,0,0,0,0.00,0.00,0.00,0.00
2016-08-11 07:00:00,0,49664,0,0.00,0,0,0,0,47178,50000,844,50000,0,0,0,0,0.00,0.00,0.00,0.00
2016-08-11 07:10:00,0,49342,0,0.00,0,0,0,0,47044,50000,1049,50000,0,0,0,0,0.00,0.00,0.00,0.00
2016-08-11 07:20:00,0,49576,0,0.00,0,0,0,0,47894,50000,722,50000,0,0,0,0,0.00,0.00,0.00,0.00
2016-08-11 07:30:00,0,50000,0,0.00,0,0,0,0,50000,50000,0,50000,0,0,0,0,0.00,0.00,0.00,0.00
2016-08-11 07:40:00,0,50000,0,0.00,0,0,0,0,50000,50000,0,50000,0,0,0,0,0.00,0.00,0.00,0.00
2016-08-11 07:50:00,0,50000,0,0.00,0,0,0,0,50000,50000,0,50000,0,0,0,0,0.00,0.00,0.00,0.00
2016-08-11 08:00:00,0,48984,0,0.00,0,0,0,0,46436,50000,1349,50000,0,0,0,0,0.00,0.00,0.00,0.00
2016-08-11 08:10:00,0,48034,0,0.00,0,0,0,0,38280,50000,3745,49960,0,0,0,0,0.00,0.00,0.00,0.00
2016-08-11 08:20:00,0,50000,0,0.00,0,0,0,0,50000,50000,0,50000,0,0,0,0,0.00,0.00,0.00,0.00
2016-08-11 08:30:00,0,49769,0,0.00,0,0,0,0,48766,50000,464,50000,0,0,0,0,0.00,0.00,0.00,0.00
2016-08-11 08:40:00,0,49941,0,0.00,0,0,0,0,49447,50000,165,50000,0,0,0,0,0.00,0.00,0.00,0.00
2016-08-11 08:50:00,0,50000,0,0.00,0,0,0,0,50000,50000,0,50000,0,0,0,0,0.00,0.00,0.00,0.00
2016-08-11 09:00:00,0,49786,0,0.00,0,0,0,0,48137,50000,556,50000,0,0,0,0,0.00,0.00,0.00,0.00
2016-08-11 09:10:00,0,50000,0,0.00,0,0,0,0,50000,50000,0,50000,0,0,0,0,0.00,0.00,0.00,0.00
2016-08-11 09:20:00,0,50000,0,0.00,0,0,0,0,50000,50000,0,50000,0,0,0,0,0.00,0.00,0.00,0.00
2016-08-11 09:30:00,0,49850,0,0.00,0,0,0,0,48912,50000,336,50000,0,0,0,0,0.00,0.00,0.00,0.00
2016-08-11 09:40:00,0,50000,0,0.00,0,0,0,0,50000,50000,0,50000,0,0,0,0,0.00,0.00,0.00,0.00
2016-08-11 09:50:00,0,41340,38,0.77,0,0,0,0,25016,50000,10094,47352,0,61,25,52,0.00,2.40,0.90,0.35
2016-08-11 10:00:00,0,30710,56,1.89,0,0,0,0,20518,42286,6295,30502,52,61,4,52,0.65,3.90,0.91,1.88
2016-08-11 10:10:00,0,27291,61,5.25,0,0,0,0,15945,35883,5770,27093,61,61,0,61,3.20,8.00,1.60,4.97
2016-08-11 10:20:00,0,13080,61,5.76,0,0,0,0,10856,16602,1854,12070,61,61,0,61,3.45,8.05,1.52,5.35
2016-08-11 10:30:00,0,27131,61,5.21,0,0,0,0,22071,33123,4167,26989,61,61,0,61,1.60,8.75,2.57,4.75
2016-08-11 10:40:00,0,41899,61,8.07,0,0,0,0,24253,50000,8033,42881,61,62,0,61,4.40,14.80,3.41,7.17
2016-08-11 10:50:00,0,38615,59,1.25,0,0,0,0,18332,50000,10320,40786,51,61,4,61,0.20,3.35,1.09,0.75
2016-08-11 11:00:00,0,38373,56,1.74,0,0,0,0,29084,48956,5282,38054,51,61,5,56,0.85,3.40,0.79,1.58
2016-08-11 11:10:00,0,37989,61,1.84,0,0,0,0,27525,48927,6215,38081,61,61,0,61,0.50,3.30,0.79,1.75
2016-08-11 11:20:00,0,42444,61,1.31,0,0,0,0,30154,50000,7465,43633,61,61,0,61,0.30,1.95,0.50,1.30
2016-08-11 11:30:00,0,49589,59,0.21,0,0,0,0,48416,50000,582,50000,51,61,4,61,0.05,0.65,0.17,0.15
2016-08-11 11:40:00,0,49988,30,0.04,0,0,0,0,49878,50000,37,50000,0,61,30,30,0.00,0.35,0.10,0.00
2016-08-11 11:50:00,0,49961,0,0.00,0,0,0,0,49610,50000,117,50000,0,0,0,0,0.00,0.00,0.00,0.00
2016-08-11 12:00:00,0,46148,18,0.08,0,0,0,0,32476,50000,6467,50000,0,61,28,0,0.00,0.60,0.18,0.00
2016-08-11 12:10:00,0,40635,61,0.82,0,0,0,0,31793,50000,5370,41638,61,61,0,61,0.05,2.25,0.72,0.75
2016-08-11 12:20:00,0,30967,39,0.04,0,0,0,0,20876,42677,6623,31967,0,61,26,51,0.00,0.15,0.05,0.03
2016-08-11 12:30:00,0,20325,24,0.10,0,0,0,0,13872,27557,4801,18706,0,61,25,20,0.00,0.65,0.19,0.00
2016-08-11 12:40:00,0,43362,20,0.01,0,0,0,0,26537,50000,9554,50000,0,51,25,0,0.00,0.05,0.02,0.00
2016-08-11 12:50:00,0,49260,0,0.00,0,0,0,0,47222,50000,1147,50000,0,0,0,0,0.00,0.00,0.00,0.00
2016-08-11 13:00:00,0,42855,33,0.31,0,0,0,0,35195,50000,4823,42465,0,51,22,41,0.00,0.70,0.24,0.35
2016-08-11 13:10:00,0,45100,42,0.25,0,0,0,0,32230,50000,5777,47536,0,61,27,61,0.00,1.35,0.41,0.03
2016-08-11 13:20:00,0,49567,0,0.00,0,0,0,0,45671,50000,1299,50000,0,0,0,0,0.00,0.00,0.00,0.00
2016-08-11 13:30:00,0,48074,18,1.09,0,0,0,0,35983,50000,4188,50000,0,61,28,0,0.00,5.70,1.95,0.00
2016-08-11 13:40:00,0,28984,61,7.05,0,0,0,0,18947,41796,7458,28098,61,62,0,61,3.25,13.95,3.13,6.38
2016-08-11 13:50:00,0,49467,61,0.70,0,0,0,0,44674,50000,1598,50000,61,61,0,61,0.00,2.90,1.09,0.10
2016-08-11 14:00:00,0,50000,6,0.00,0,0,0,0,50000,50000,0,50000,0,61,18,0,0.00,0.00,0.00,0.00
2016-08-11 14:10:00,0,49909,0,0.00,0,0,0,0,49091,50000,273,50000,0,0,0,0,0.00,0.00,0.00,0.00
2016-08-11 14:20:00,0,50000,0,0.00,0,0,0,0,50000,50000,0,50000,0,0,0,0,0.00,0.00,0.00,0.00
2016-08-11 14:30:00,0,50000,0,0.00,0,0,0,0,50000,50000,0,50000,0,0,0,0,0.00,0.00,0.00,0.00
2016-08-11 14:40:00,0,49798,0,0.00,0,0,0,0,47976,50000,607,50000,0,0,0,0,0.00,0.00,0.00,0.00
2016-08-11 14:50:00,0,50000,0,0.00,0,0,0,0,50000,50000,0,50000,0,0,0,0,0.00,0.00,0.00,0.00
2016-08-11 15:00:00,0,44856,0,0.00,0,0,0,0,30568,50000,7050,49858,0,0,0,0,0.00,0.00,0.00,0.00
2016-08-11 15:10:00,0,50000,0,0.00,0,0,0,0,50000,50000,0,50000,0,0,0,0,0.00,0.00,0.00,0.00
2016-08-11 15:20:00,0,48893,0,0.00,0,0,0,0,44997,50000,1827,50000,0,0,0,0,0.00,0.00,0.00,0.00
2016-08-11 15:30:00,0,50000,0,0.00,0,0,0,0,50000,50000,0,50000,0,0,0,0,0.00,0.00,0.00,0.00
2016-08-11 15:40:00,0,50000,0,0.00,0,0,0,0,50000,50000,0,50000,0,0,0,0,0.00,0.00,0.00,0.00
2016-08-11 15:50:00,0,41402,30,2.04,0,0,0,0,12046,50000,11782,46613,0,61,30,30,0.00,7.90,2.82,0.00
2016-08-11 16:00:00,0,35626,61,6.69,0,0,0,0,19835,50000,11374,32420,61,62,0,61,0.05,27.10,7.38,4.80
2016-08-11 16:10:00,0,50000,18,0.01,0,0,0,0,50000,50000,0,50000,0,61,28,0,0.00,0.10,0.03,0.00
2016-08-11 16:20:00,0,50000,0,0.00,0,0,0,0,50000,50000,0,50000,0,0,0,0,0.00,0.00,0.00,0.00
2016-08-11 16:30:00,0,50000,0,0.00,0,0,0,0,50000,50000,0,50000,0,0,0,0,0.00,0.00,0.00,0.00
2016-08-11 16:40:00,0,50000,0,0.00,0,0,0,0,50000,50000,0,50000,0,0,0,0,0.00,0.00,0.00,0.00
2016-08-11 16:50:00,0,50000,0,0.00,0,0,0,0,50000,50000,0,50000,0,0,0,0,0.00,0.00,0.00,0.00
2016-08-11 17:00:00,0,50000,0,0.00,0,0,0,0,50000,50000,0,50000,0,0,0,0,0.00,0.00,0.00,0.00
2016-08-11 17:10:00,0,50000,0,0.00,0,0,0,0,50000,50000,0,50000,0,0,0,0,0.00,0.00,0.00,0.00
2016-08-11 17:20:00,0,50000,0,0.00,0,0,0,0,50000,50000,0,50000,0,0,0,0,0.00,0.00,0.00,0.00
2016-08-11 17:30:00,0,50000,0,0.00,0,0,0,0,50000,50000,0,50000,0,0,0,0,0.00,0.00,0.00,0.00
2016-08-11 17:40:00,0,49952,0,0.00,0,0,0,0,49604,50000,119,50000,0,0,0,0,0.00,0.00,0.00,0.00
2016-08-11 17:50:00,0,49838,0,0.00,0,0,0,0,48385,50000,484,50000,0,0,0,0,0.00,0.00,0.00,0.00
2016-08-11 18:00:00,0,50000,0,0.00,0,0,0,0,50000,50000,0,50000,0,0,0,0,0.00,0.00,0.00,0.00
2016-08-11 18:10:00,0,50000,0,0.00,0,0,0,0,50000,50000,0,50000,0,0,0,0,0.00,0.00,0.00,0.00
2016-08-11 18:20:00,0,50000,0,0.00,0,0,0,0,50000,50000,0,50000,0,0,0,0,0.00,0.00,0.00,0.00
2016-08-11 18:30:00,0,48652,0,0.00,0,0,0,0,40494,50000,2966,50000,0,0,0,0,0.00,0.00,0.00,0.00
2016-08-11 18:40:00,0,49644,0,0.00,0,0,0,0,48163,50000,669,50000,0,0,0,0,0.00,0.00,0.00,0.00
2016-08-11 18:50:00,0,50000,0,0.00,0,0,0,0,50000,50000,0,50000,0,0,0,0,0.00,0.00,0.00,0.00
2016-08-11 19:00:00,0,49668,0,0.00,0,0,0,0,48151,50000,611,50000,0,0,0,0,0.00,0.00,0.00,0.00
2016-08-11 19:10:00,0,47909,0,0.00,0,0,0,0,40716,50000,3370,50000,0,0,0,0,0.00,0.00,0.00,0.00
2016-08-11 19:20:00,0,38638,0,0.00,0,0,0,0,5243,50000,14003,43570,0,0,0,0,0.00,0.00,0.00,0.00
2016-08-11 19:30:00,0,33674,0,0.00,0,0,0,0,7215,50000,15611,38653,0,0,0,0,0.00,0.00,0.00,0.00
2016-08-11 19:40:00,0,44894,0,0.00,0,0,0,0,30450,49150,5065,45966,0,0,0,0,0.00,0.00,0.00,0.00
2016-08-11 19:50:00,0,45352,0,0.00,0,0,0,0,35382,50000,4249,44685,0,0,0,0,0.00,0.00,0.00,0.00
2016-08-11 20:00:00,0,36938,0,0.00,0,0,0,0,18596,50000,11420,41346,0,0,0,0,0.00,0.00,0.00,0.00
2016-08-11 20:10:00,0,26921,6,0.06,0,0,0,0,6773,47591,13620,28204,0,61,18,0,0.00,0.55,0.17,0.00
2016-08-11 20:20:00,0,10505,51,5.22,0,0,0,0,3859,21267,5926,8459,0,61,17,53,0.00,21.40,6.71,1.88
2016-08-11 20:30:00,0,30784,18,0.79,0,0,0,0,5334,50000,18483,35744,0,61,28,0,0.00,5.65,1.69,0.00
2016-08-11 20:40:00,0,49259,0,0.00,0,0,0,0,45505,50000,1376,50000,0,0,0,0,0.00,0.00,0.00,0.00
2016-08-11 20:50:00,0,49872,0,0.00,0,0,0,0,49263,50000,259,50000,0,0,0,0,0.00,0.00,0.00,0.00
2016-08-11 21:00:00,0,49009,0,0.00,0,0,0,0,44742,50000,1710,50000,0,0,0,0,0.00,0.00,0.00,0.00
2016-08-11 21:10:00,0,49112,0,0.00,0,0,0,0,45670,50000,1576,50000,0,0,0,0,0.00,0.00,0.00,0.00
2016-08-11 21:20:00,0,49952,0,0.00,0,0,0,0,49518,50000,145,50000,0,0,0,0,0.00,0.00,0.00,0.00
2016-08-11 21:30:00,0,27425,41,1.58,0,0,0,0,7384,50000,14818,24176,0,61,27,56,0.00,9.60,2.82,0.40
2016-08-11 21:40:00,0,45409,20,0.02,0,0,0,0,23428,50000,7887,48649,0,52,24,0,0.00,0.10,0.03,0.00
2016-08-11 21:50:00,0,48450,0,0.00,0,0,0,0,42769,50000,2316,49678,0,0,0,0,0.00,0.00,0.00,0.00
2016-08-11 22:00:00,0,41743,0,0.00,0,0,0,0,17926,50000,11146,47910,0,0,0,0,0.00,0.00,0.00,0.00
2016-08-11 22:10:00,0,44106,0,0.00,0,0,0,0,33335,50000,5712,45314,0,0,0,0,0.00,0.00,0.00,0.00
2016-08-11 22:20:00,0,48567,0,0.00,0,0,0,0,43779,50000,1942,49750,0,0,0,0,0.00,0.00,0.00,0.00
2016-08-11 22:30:00,0,19022,28,0.93,0,0,0,0,6260,50000,14499,10443,0,61,28,26,0.00,5.25,1.55,0.22
2016-08-11 22:40:00,0,44121,0,0.00,0,0,0,0,13805,50000,10521,47870,0,0,0,0,0.00,0.00,0.00,0.00
2016-08-11 22:50:00,0,18394,30,0.50,0,0,0,0,8806,27665,6394,19866,0,61,30,30,0.00,2.75,0.93,0.03
2016-08-11 23:00:00,0,31685,23,0.20,0,0,0,0,16993,47933,8500,31379,0,61,28,0,0.00,0.80,0.30,0.00
2016-08-11 23:10:00,0,13701,39,3.54,0,0,0,0,8743,24468,4626,12106,0,61,26,52,0.00,12.65,4.40,1.57
2016-08-11 23:20:00,0,22555,0,0.00,0,0,0,0,10485,39281,10716,17801,0,0,0,0,0.00,0.00,0.00,0.00
2016-08-11 23:30:00,0,44016,0,0.00,0,0,0,0,39781,49801,3313,44116,0,0,0,0,0.00,0.00,0.00,0.00
2016-08-11 23:40:00,0,44166,0,0.00,0,2,1,0,34486,50000,4977,45178,0,0,0,0,0.00,0.00,0.00,0.00
2016-08-11 23:50:00,0,45168,0,0.00,0,0,0,0,39289,50000,3987,45511,0,0,0,0,0.00,0.00,0.00,0.00
